Regional Weather Roundup
Issued by NWS

Home | Current Version | Previous Version | Graphics & Text | Print | Product List | Glossary On
Versions: 1 2 3 4 5 6 7 8 9 10 11 12 13 14 15 16 17 18 19 20 21 22 23 24 25 26 27 28 29 30 31 32 33 34 35 36 37 38 39 40 41 42 43 44 45 46 47 48 49 50
000
ASUS44 KMEG 290610
RWRTN
TENNESSEE HOURLY STATE WEATHER ROUNDUP
NATIONAL WEATHER SERVICE MEMPHIS TN
1200 AM CST SAT NOV 29 2014

TNZ002-004-019-021-049-052-054-088>092-290700-
WEST TENNESSEE

CITY           SKY/WX    TMP DP  RH WIND       PRES   REMARKS
MEMPHIS INTL   CLEAR     49  28  44 S12       30.08F
NWS MEMPHIS      N/A     45 N/A N/A MISG        N/A
JACKSON        CLEAR     44  27  51 S8        30.09F
DYERSBURG      CLEAR     43  21  42 S6        30.06F
UNION CITY     CLEAR     39  28  65 S6        30.04F WCI  35
PARIS          CLEAR     39  27  60 S9        30.07F WCI  33
HUNTINGDON     CLEAR     42  23  47 S9        30.08S
LEXINGTON      CLEAR     43  25  49 S12       30.09F
SAVANNAH       CLEAR     43  25  49 S10       30.13S
$$

TNZ008-025-027-028-033-062-065-066-290700-
NORTH MIDDLE TENNESSEE

CITY           SKY/WX    TMP DP  RH WIND       PRES   REMARKS
NASHVILLE      CLEAR     43  22  43 S12       30.14S
CLARKSVILLE    CLEAR     43  25  49 S10       30.09R
COOKEVILLE     CLEAR     37  21  52 S5        30.14S WCI  34
CROSSVILLE     PTCLDY    40  18  41 VRB5      30.15F
$$

TNZ061-075-076-078-094-096-097-290700-
SOUTH MIDDLE TENNESSEE

CITY           SKY/WX    TMP DP  RH WIND       PRES   REMARKS
FAYETTEVILLE   CLEAR     37  19  48 MISG      30.16F
TULLAHOMA      CLEAR     37  19  48 S5        30.16F WCI  34
WINCHESTER     CLEAR     36  21  55 SE5       30.18F WCI  32
MCMINNVILLE    CLEAR     30  21  69 CALM      30.15S
COLUMBIA       CLEAR     43  25  49 VRB7      30.12S
SHELBYVILLE    CLEAR     39  23  52 S9        30.17S WCI  33
$$

TNZ017-018-042-046-047-290700-
NORTHEAST TENNESSEE

CITY           SKY/WX    TMP DP  RH WIND       PRES   REMARKS
TRI CITIES     PTCLDY    24  22  91 CALM      30.20F
ELIZABETHTON   CLEAR     27  19  74 NE3       30.20S
$$

TNZ012-013-036-069-073-074-290700-
CENTRAL EAST TENNESSEE

CITY           SKY/WX    TMP DP  RH WIND       PRES   REMARKS
KNOXVILLE      PTCLDY    30  23  75 CALM      30.20F
OAK RIDGE      PTCLDY    31  23  72 CALM      30.22F
GATLINBURG     CLEAR     25  21  86 CALM      30.21F
MORRISTOWN     CLEAR     27  21  80 CALM      30.20F
$$

TNZ083-085-099-290700-
SOUTHEAST TENNESSEE

CITY           SKY/WX    TMP DP  RH WIND       PRES   REMARKS
CHATTANOOGA    CLEAR     31  25  78 CALM      30.24F
$$

SKY/WX REPORTED AS FAIR MEANS FEW OR NO CLOUDS BELOW
12 THOUSAND FEET.




USA.gov is the U.S. government's official web portal to all federal, state and local government web resources and services.